User: anonymous   Login
Location: Unspecified
(0.0000°N, 0.0000°E)
Time: 07:08:28
(UTC+00:00)
Language:

Vela 4A - Orbit

View from above orbital plane
View from above orbital plane
View from above satellite
View from above satellite

Ground track
Ground track

The orbit data is extracted from the following two-line orbital elements,

1 02765U 67040A   22009.51247648 -.00001330  00000-0  00000-0 0  9995
2 02765  32.1023  38.7267 4488030 220.0932   1.6994  0.21487026 10023
Epoch (UTC): 09 January 2022 12:17:57
Eccentricity: 0.4488030
inclination: 32.1023°
perigee height: 58523 km
apogee height: 164212 km
right ascension of ascending node: 38.7267°
argument of perigee: 220.0932°
revolutions per day: 0.21487026
mean anomaly at epoch: 1.6994°
orbit number at epoch: 1002

The dashed part of the orbit path shows where the satellite is in the earth's shadow,  

DLR